Hourly Data Report for October 16, 2014

All times are specified in Local Standard Time (LST). Add 1 hour to adjust for Daylight Saving Time where and when it is observed.

HALL BEACH A
NUNAVUT

68°46'33.000" N
81°14'33.000" W
9.10 m
2402354
71293
YUX

Download Data

Hourly Data (October 2014)
Hourly Data Report for October 16, 2014
Temp Definition
°C
Dew Point Temp Definition
°C
Rel Hum Definition
%
Wind Dir Definition
10's deg

Wind Spd Definition
km/h
Visibility Definition
km
Stn Press Definition
kPa
Hmdx Definition


Wind Chill Definition


Weather Definition


TIME
00:00 Legend Double Dagger -4.3 -5.3 93 34 34 16.1 100.72   -13 LegendNANA
01:00 Legend Double Dagger -4.2 -5.2 93 34 35 16.1 100.73   -13 LegendNANA
02:00 Legend Double Dagger -3.3 -4.6 91 34 37 16.1 100.73   -12 LegendNANA
03:00 Legend Double Dagger -3.8 -4.8 93 34 43 16.1 100.75   -13 LegendNANA
04:00 Legend Double Dagger -3.1 -4.2 92 34 39 16.1 100.78   -11 LegendNANA
05:00 Legend Double Dagger -3.1 -4.2 92 34 43 16.1 100.79   -12 LegendNANA
06:00 Legend Double Dagger -3.1 -4.2 92 34 37 16.1 100.82   -11 LegendNANA
07:00 Legend Double Dagger -3.1 -4.5 90 34 39 16.1 100.84   -11 LegendNANA
08:00 Legend Double Dagger -3.1 -4.5 90 34 39 16.1 100.86   -11 LegendNANA
09:00 Legend Double Dagger -3.1 -4.5 90 35 41 16.1 100.86   -12 LegendNANA
10:00 Legend Double Dagger -3.0 -4.3 91 35 41 16.1 100.86   -11 LegendNANA
11:00 Legend Double Dagger -2.8 -4.1 91 35 39 16.1 100.88   -11 Snow
12:00 Legend Double Dagger -2.2 -3.6 90 36 35 16.1 100.91   -10 LegendNANA
13:00 Legend Double Dagger -2.1 -3.5 90 36 37 16.1 100.95   -10 LegendNANA
14:00 Legend Double Dagger -2.2 -3.6 90 36 37 16.1 101.01   -10 LegendNANA
15:00 Legend Double Dagger -1.9 -3.2 91 36 32 16.1 101.06   -9 LegendNANA
16:00 Legend Double Dagger -2.5 -3.6 92 36 30 16.1 101.12   -10 LegendNANA
17:00 Legend Double Dagger -2.4 -3.4 93 1 32 16.1 101.18   -10 LegendNANA
18:00 Legend Double Dagger -1.7 -2.8 92 36 30 16.1 101.25   -9 LegendNANA
19:00 Legend Double Dagger -4.7 -5.5 94 35 24 16.1 101.31   -12 LegendNANA
20:00 Legend Double Dagger -3.1 -3.8 95 35 30 16.1 101.37   -11 LegendNANA
21:00 Legend Double Dagger -2.1 -3.4 91 36 34 16.1 101.42   -10 LegendNANA
22:00 Legend Double Dagger -2.6 -3.7 92 36 32 16.1 101.45   -10 LegendNANA
23:00 Legend Double Dagger -2.6 -3.9 91 36 32 16.1 101.50   -10 LegendNANA

Notes on Data Quality.

Legend

  • E = Estimated
  • M = Missing
  • NA = Not Available
  • ‡ = Partner data that is not subject to review by the National Climate Archives
Date modified: